Total_Precipitation_Accumulation
2.09 2.54 2.70 2.80 3.19 3.49 3.70 3.61 3.80 4.23 4.51 4.91 4.96 5.19 5.65 5.98 6.07 6.10 6.06 5.96 5.89 5.93 5.81 5.65 5.83 5.63 5.37 5.16 5.14 5.12 5.00 4.62 4.58 4.60 4.09 3.34 2.87 2.66 2.48 2.53 2.64 2.53 2.50
1.95 2.44 2.69 3.07 3.37 3.48 3.72 3.85 4.00 4.51 5.00 5.57 6.11 6.51 6.94 6.97 7.08 7.00 6.87 6.50 6.31 6.25 6.07 6.11 5.92 5.72 5.61 5.33 5.13 5.11 5.01 4.62 4.67 4.71 4.71 3.87 3.27 2.59 2.02 2.16 2.24 2.26 2.35
1.99 2.33 2.66 3.04 3.35 3.53 3.77 3.93 4.28 4.90 5.73 6.37 6.91 7.45 7.80 7.55 7.32 6.99 6.81 6.66 6.64 6.59 6.45 6.39 6.09 5.88 5.63 5.29 5.03 4.91 4.85 4.72 4.71 4.57 4.70 4.13 3.41 2.83 2.27 1.95 1.90 2.06 2.27
1.96 2.24 2.56 2.91 3.22 3.57 3.70 3.91 4.58 5.28 5.94 6.61 7.28 7.84 8.10 8.11 7.89 7.30 6.82 6.43 6.17 5.89 5.79 5.82 5.69 5.52 5.21 4.97 4.64 4.54 4.50 4.68 4.48 4.43 4.21 3.90 3.56 3.34 2.85 2.33 2.10 2.12 2.11
1.94 2.14 2.41 2.69 2.88 3.27 3.67 3.97 4.66 5.43 6.11 6.91 7.68 8.09 8.26 8.24 7.89 7.14 6.42 5.87 5.46 5.07 4.85 4.89 4.83 4.67 4.47 4.31 4.25 4.32 4.22 4.16 3.99 3.91 3.94 3.98 3.89 3.47 3.10 2.72 2.46 2.36 2.20
1.83 1.91 2.20 2.40 2.71 3.08 3.54 4.07 4.44 5.12 5.96 6.58 7.11 7.28 7.43 7.39 7.00 6.55 6.03 5.62 5.08 4.56 4.17 4.03 3.98 3.80 3.64 3.66 3.68 3.78 3.73 3.77 3.80 3.72 3.60 3.63 3.64 3.39 3.29 2.95 2.65 2.60 2.38
1.77 2.03 2.32 2.30 2.61 3.01 3.47 3.97 4.40 4.89 5.53 6.08 6.50 6.69 6.81 6.70 6.23 5.78 5.34 4.89 4.34 3.91 3.59 3.41 3.36 3.25 3.18 3.18 3.35 3.47 3.39 3.35 3.41 3.38 3.30 3.26 3.21 3.20 3.20 3.28 3.00 2.67 2.32
1.86 1.99 2.16 2.29 2.63 2.91 3.21 3.60 3.94 4.36 4.65 4.97 5.45 5.70 5.83 5.63 5.26 4.82 4.30 3.95 3.59 3.25 3.08 2.96 2.90 2.82 2.72 2.67 2.92 3.03 3.07 3.08 3.13 3.07 3.22 3.19 3.08 3.09 3.05 3.13 3.26 3.08 2.68
1.82 2.02 2.23 2.43 2.63 2.97 3.44 3.61 3.59 3.81 4.07 4.38 4.59 4.66 4.71 4.58 4.33 4.05 3.72 3.34 3.01 2.71 2.57 2.51 2.51 2.48 2.45 2.50 2.71 2.76 2.71 2.81 2.81 2.85 2.99 2.97 2.93 3.01 2.97 3.06 3.26 3.45 3.21
1.89 2.03 2.18 2.40 2.51 2.62 3.00 3.29 3.37 3.46 3.53 3.64 3.70 3.65 3.79 3.71 3.64 3.46 3.21 2.91 2.69 2.44 2.39 2.31 2.29 2.32 2.28 2.27 2.42 2.51 2.58 2.61 2.58 2.70 2.89 2.90 2.83 3.02 3.11 3.19 3.23 3.30 3.34
2.11 2.09 2.07 2.13 2.32 2.43 2.61 2.89 3.13 3.17 3.17 3.30 3.31 3.22 3.34 3.35 3.37 3.23 3.03 2.88 2.79 2.64 2.45 2.33 2.39 2.37 2.30 2.25 2.27 2.18 2.29 2.41 2.49 2.53 2.63 2.72 2.82 2.99 3.02 3.07 3.10 3.19 3.25
1.93 1.89 1.86 1.90 2.03 2.26 2.53 2.75 2.91 2.83 2.85 2.97 3.13 3.24 3.31 3.26 3.17 2.95 2.81 2.70 2.54 2.37 2.32 2.30 2.34 2.32 2.24 2.23 2.14 2.01 2.10 2.26 2.36 2.40 2.48 2.50 2.59 2.73 2.67 2.77 2.79 2.87 3.00
2.01 1.90 1.84 1.90 1.98 2.05 2.20 2.45 2.67 2.76 2.72 2.72 2.74 2.91 2.99 2.93 2.86 2.76 2.67 2.56 2.39 2.30 2.32 2.32 2.30 2.30 2.27 2.26 2.20 2.16 2.12 2.05 2.06 2.16 2.20 2.24 2.35 2.33 2.25 2.28 2.26 2.35 2.46
2.17 1.99 1.94 1.91 1.90 1.98 2.04 2.14 2.30 2.46 2.58 2.65 2.82 2.88 2.84 2.75 2.67 2.54 2.35 2.23 2.15 2.17 2.26 2.21 2.15 2.13 2.05 1.95 2.00 2.04 2.00 1.90 1.84 1.83 1.83 1.82 1.81 1.82 1.87 1.87 1.95 2.10 2.41
2.06 1.98 1.99 2.05 2.01 1.96 2.01 2.07 2.23 2.28 2.48 2.62 2.64 2.61 2.57 2.53 2.48 2.42 2.28 2.14 2.02 1.92 2.02 2.00 1.94 1.89 1.76 1.63 1.68 1.75 1.73 1.78 1.74 1.70 1.66 1.58 1.58 1.63 1.60 1.49 1.68 1.98 2.30
1.95 1.94 1.91 2.00 1.90 1.83 1.83 1.88 2.08 2.13 2.22 2.33 2.37 2.33 2.32 2.43 2.45 2.40 2.27 2.16 2.03 1.92 1.90 1.87 1.76 1.65 1.43 1.44 1.47 1.47 1.54 1.66 1.72 1.68 1.58 1.49 1.48 1.44 1.38 1.35 1.46 1.64 1.86
2.12 2.15 2.22 2.20 2.03 1.89 1.83 1.91 2.04 2.13 2.18 2.20 2.15 2.19 2.20 2.18 2.23 2.13 2.03 2.03 2.05 1.90 1.78 1.69 1.59 1.47 1.39 1.37 1.32 1.35 1.44 1.55 1.63 1.66 1.67 1.45 1.26 1.40 1.36 1.39 1.42 1.42 1.49
2.52 2.54 2.52 2.29 2.09 1.99 1.94 2.00 2.01 2.07 2.20 2.14 2.00 1.96 1.96 1.92 1.95 1.98 1.98 1.95 1.96 1.88 1.75 1.63 1.54 1.48 1.34 1.31 1.26 1.28 1.33 1.49 1.53 1.55 1.58 1.62 1.56 1.46 1.48 1.46 1.43 1.37 1.39
2.56 2.53 2.47 2.30 2.08 1.95 1.89 1.90 1.96 1.92 1.94 1.85 1.80 1.72 1.69 1.76 1.80 1.82 1.92 1.93 1.85 1.81 1.69 1.59 1.56 1.53 1.38 1.31 1.22 1.30 1.38 1.49 1.47 1.40 1.40 1.39 1.38 1.41 1.48 1.55 1.60 1.55 1.49
2.15 2.23 2.26 2.18 2.00 1.85 1.79 1.83 1.87 1.84 1.79 1.77 1.75 1.64 1.61 1.66 1.70 1.71 1.79 1.77 1.78 1.79 1.69 1.62 1.61 1.56 1.51 1.37 1.23 1.32 1.35 1.38 1.40 1.45 1.41 1.34 1.23 1.21 1.21 1.27 1.53 1.66 1.57
1.87 1.92 2.13 2.16 1.95 1.77 1.75 1.81 1.79 1.76 1.60 1.60 1.69 1.72 1.69 1.66 1.68 1.70 1.73 1.72 1.72 1.77 1.76 1.72 1.73 1.71 1.60 1.44 1.29 1.29 1.28 1.27 1.32 1.35 1.32 1.27 1.12 0.97 0.98 1.10 1.31 1.45 1.48
1.75 1.80 1.96 1.88 1.74 1.70 1.81 1.84 1.78 1.64 1.57 1.63 1.79 1.80 1.81 1.66 1.61 1.80 1.83 1.76 1.74 1.72 1.78 1.80 1.78 1.75 1.68 1.46 1.29 1.21 1.16 1.18 1.22 1.28 1.27 1.21 1.12 0.96 0.96 1.04 1.18 1.29 1.43
1.63 1.69 1.76 1.71 1.64 1.65 1.77 1.87 1.77 1.63 1.69 1.81 1.87 1.90 1.80 1.78 1.75 1.80 1.82 1.76 1.74 1.66 1.63 1.64 1.66 1.63 1.55 1.41 1.27 1.19 1.12 1.12 1.10 1.13 1.18 1.14 1.13 1.11 1.13 1.17 1.21 1.30 1.49
1.52 1.61 1.68 1.62 1.56 1.54 1.54 1.61 1.57 1.53 1.70 1.89 1.87 1.88 1.87 1.84 1.82 1.79 1.70 1.65 1.62 1.56 1.50 1.46 1.46 1.38 1.34 1.23 1.09 1.05 1.04 1.06 1.10 1.12 1.21 1.28 1.30 1.28 1.27 1.30 1.36 1.42 1.53
1.45 1.51 1.59 1.62 1.49 1.38 1.36 1.37 1.44 1.58 1.77 1.80 1.74 1.75 1.77 1.76 1.75 1.64 1.55 1.54 1.47 1.36 1.28 1.24 1.21 1.16 1.13 1.11 1.09 1.03 1.02 0.99 1.01 1.10 1.23 1.42 1.49 1.47 1.40 1.36 1.37 1.40 1.44
1.42 1.50 1.48 1.45 1.36 1.24 1.20 1.25 1.35 1.45 1.61 1.61 1.56 1.56 1.64 1.66 1.59 1.55 1.42 1.33 1.23 1.24 1.19 1.16 1.18 1.15 1.14 1.06 0.94 0.94 0.97 1.01 1.14 1.17 1.34 1.48 1.52 1.53 1.39 1.33 1.28 1.26 1.28